Location: Unspecified
(49.2170°N, 0.0000°E)
Time: 15:08:40
(UTC+00:00)

Tiros 1 despin weight - Pass Details

Date: 25 January 2021
Orbit: 593 x 642 km, 48.2° (Epoch: 07 March)

Event Time Altitude Azimuth Distance (km) Brightness Sun altitude
Rises 17:10:04 0° 273° (W) 2,873 ? -4.4°
Reaches altitude 10° 17:12:23 10° 272° (W) 1,960 ? -4.8°
Maximum altitude 17:16:52 76° 187° (S) 624 ? -5.5°
Drops below altitude 10° 17:21:18 10° 102° (ESE) 1,933 ? -6.1°
Enters shadow 17:22:46 - 101° (ESE) 2,512 ? -6.4°
Sets 17:23:34 0° 101° (E) 2,830 - -6.5°
